CW6899 Weather Reports


time (UTC)temp
C
wind
direction
speed
KPH
gust
KPH
rain 1hr
cm
rain 24hr
cm
rain mn
cm
humidity
%
barometer
mb
20260504080905 6 80 3.2 3.2 0.00 0.00 0.00 97 1027.7
20260504045904 11 66 3.2 4.8 0.00 0.00 0.00 91 1026.9
20260504044905 11 63 3.2 4.8 0.00 0.00 0.00 91 1026.9
20260504043904 11 68 3.2 4.8 0.00 0.00 0.00 90 1026.9
20260504041906 11 77 3.2 8.0 0.00 0.00 0.00 88 1026.9
20260504040904 12 60 3.2 4.8 0.00 0.00 0.00 86 1026.8
20260504035904 12 61 1.6 4.8 0.00 0.00 0.00 84 1026.7
20260504034905 13 51 3.2 8.0 0.00 0.00 0.00 81 1026.7
20260504033905 12 50 3.2 4.8 0.00 0.00 0.00 82 1026.6
20260504032904 12 44 4.8 8.0 0.00 0.00 0.00 82 1026.6
20260504031904 13 49 3.2 4.8 0.00 0.00 0.00 78 1026.5
20260504030905 13 57 3.2 4.8 0.00 0.00 0.00 80 1026.5
20260504025905 14 43 3.2 4.8 0.00 0.00 0.00 76 1026.6
20260504023905 13 40 4.8 8.0 0.00 0.00 0.00 80 1026.7
20260504022904 13 61 3.2 4.8 0.00 0.00 0.00 79 1026.6
20260504021905 13 49 3.2 4.8 0.00 0.00 0.00 79 1026.6
20260504015905 13 71 1.6 3.2 0.00 0.00 0.00 81 1026.9
20260504014910 12 57 3.2 4.8 0.00 0.00 0.00 81 1026.8
20260504013905 13 60 3.2 4.8 0.00 0.00 0.00 81 1027.1
20260504012905 13 52 3.2 4.8 0.00 0.00 0.00 81 1027.0
20260504011905 13 54 3.2 4.8 0.00 0.00 0.00 79 1027.3
20260504010904 13 42 1.6 4.8 0.00 0.00 0.00 79 1027.4
20260504005904 13 63 3.2 3.2 0.00 0.00 0.00 82 1027.5
20260504004904 12 73 1.6 4.8 0.00 0.00 0.00 85 1028.0
20260504003904 12 45 4.8 4.8 0.00 0.00 0.00 84 1028.1
20260504002905 12 52 3.2 4.8 0.00 0.00 0.00 86 1028.3
20260504001905 12 72 3.2 3.2 0.00 0.00 0.00 89 1028.5
20260504000904 11 79 1.6 3.2 0.00 0.00 0.00 93 1028.6
20260503235905 11 67 1.6 3.2 0.00 0.00 0.00 94 1028.5
20260503234905 11 71 1.6 3.2 0.00 0.00 0.00 98 1028.9
20260503233905 10 70 1.6 3.2 0.00 0.00 0.00 99 1029.0
20260503232904 10 79 1.6 4.8 0.00 0.00 0.00 99 1028.9
20260503231905 10 62 3.2 3.2 0.00 0.00 0.00 99 1029.1
20260503230905 10 67 1.6 3.2 0.00 0.00 0.00 99 1029.3
20260503225905 9 71 1.6 4.8 0.00 0.00 0.00 99 1029.2
20260503224905 9 65 1.6 3.2 0.00 0.00 0.00 99 1029.3
20260503223904 8 72 1.6 3.2 0.00 0.00 0.00 99 1029.3
20260503221905 8 67 3.2 3.2 0.00 0.00 0.00 99 1029.4
20260503215905 7 78 1.6 3.2 0.00 0.00 0.00 99 1029.3
20260503214904 6 74 3.2 3.2 0.00 0.00 0.00 99 1029.3
20260503213904 6 70 3.2 3.2 0.00 0.00 0.00 98 1029.7
20260503212904 5 80 1.6 3.2 0.00 0.00 0.00 98 1029.4
20260503211905 5 80 3.2 3.2 0.00 0.00 0.00 98 1029.4
20260503205905 3 78 3.2 3.2 0.00 0.00 0.00 99 1029.5
20260503204905 3 82 3.2 3.2 0.00 0.00 0.00 99 1029.3
20260503202906 3 89 1.6 4.8 0.00 0.00 0.00 99 1029.2
20260503201906 2 73 3.2 3.2 0.00 0.00 0.00 99 1029.3
20260503200923 2 80 3.2 3.2 0.00 0.00 0.00 99 1029.1
20260503195904 2 78 3.2 3.2 0.00 0.00 0.00 99 1028.9